Le nostre stazioni meteo in Italia

Pubblicità
Il mio iltempo24.it
Chillingham Barns, Gran Bretagna (99196): Temperatura & dewpoint: 07.12.2018 21:00:00 - 13.12.2018 21:00:00 (GMT)Chillingham Barns, Gran Bretagna (99196): precipitazioni: 07.12.2018 21:00:00 - 13.12.2018 21:00:00 (GMT)
Data & Tempo tt [°C] td [°C] rr [mm]
13.12.2018 21:00:00 3,3 -0,6 0,0
13.12.2018 20:00:00 2,9 -1,1 0,0
13.12.2018 19:00:00 4,7 -0,1 0,0
13.12.2018 18:00:00 4,8 1,1 0,0
13.12.2018 17:00:00 4,5 0,2 0,0
13.12.2018 16:00:00 5,1 -0,8 0,0
13.12.2018 15:00:00 4,2 0,5 0,0
13.12.2018 14:00:00 4,9 0,3 0,0
13.12.2018 13:00:00 5,0 0,1 0,0
13.12.2018 12:00:00 4,7 -0,4 0,0
13.12.2018 11:00:00 4,8 -0,2 0,0
13.12.2018 10:00:00 4,5 -0,5 0,0
13.12.2018 09:00:00 4,6 0,2 0,0
13.12.2018 08:00:00 4,2 0,2 0,0
13.12.2018 07:00:00 4,7 -0,2 0,0
13.12.2018 06:00:00 4,6 0,2 0,0
13.12.2018 05:00:00 4,3 0,7 0,0
13.12.2018 04:00:00 4,6 0,3 0,0
13.12.2018 03:00:00 4,5 1,1 0,0
13.12.2018 02:00:00 4,1 -0,4 0,0
13.12.2018 01:00:00 3,8 -0,8 0,0
13.12.2018 00:00:00 3,1 -1,5 0,0
12.12.2018 23:00:00 3,1 -2,0 0,0
12.12.2018 22:00:00 3,1 -2,4 0,0
12.12.2018 21:00:00 3,5 -1,3 0,0
12.12.2018 20:00:00 4,0 -0,6 0,0
12.12.2018 19:00:00 4,3 0,1 0,0
12.12.2018 18:00:00 4,3 0,6 0,0
12.12.2018 17:00:00 4,7 1,4 0,0
12.12.2018 16:00:00 5,4 1,5 0,0
12.12.2018 15:00:00 5,8 1,7 0,0
12.12.2018 14:00:00 6,2 2,4 0,0
12.12.2018 13:00:00 6,3 2,6 0,0
12.12.2018 12:00:00 6,1 3,1 0,0
12.12.2018 11:00:00 5,6 3,3 0,0
12.12.2018 10:00:00 5,4 3,5 0,0
12.12.2018 09:00:00 5,1 3,4 0,0
12.12.2018 08:00:00 4,8 3,2 0,0
12.12.2018 07:00:00 4,6 3,3 0,0
12.12.2018 06:00:00 4,7 3,5 0,0
12.12.2018 05:00:00 4,6 3,7 0,0
12.12.2018 04:00:00 4,4 3,6 0,0
12.12.2018 03:00:00 4,2 3,5 0,0
12.12.2018 02:00:00 4,5 3,4 0,0
12.12.2018 01:00:00 4,9 4,2 0,0
12.12.2018 00:00:00 4,8 4,0 0,0
11.12.2018 23:00:00 4,7 4,1 0,0
11.12.2018 22:00:00 4,4 3,8 0,0
11.12.2018 21:00:00 4,5 3,6 0,0
11.12.2018 20:00:00 5,3 4,1 0,0
11.12.2018 19:00:00 5,4 4,2 0,0
11.12.2018 18:00:00 5,8 4,5 0,0
11.12.2018 17:00:00 5,4 4,0 0,0
11.12.2018 16:00:00 5,1 3,6 0,0
11.12.2018 15:00:00 6,1 4,0 0,0
11.12.2018 14:00:00 5,8 3,7 0,0
11.12.2018 13:00:00 6,1 3,8 0,0
11.12.2018 12:00:00 - - -
11.12.2018 11:00:00 5,4 3,2 0,0
11.12.2018 10:00:00 4,4 2,7 0,0
11.12.2018 09:00:00 4,2 2,1 0,0
11.12.2018 08:00:00 3,4 1,2 0,0
11.12.2018 07:00:00 3,4 1,3 0,0
11.12.2018 06:00:00 3,4 1,1 0,0
11.12.2018 05:00:00 3,2 0,4 0,0
11.12.2018 04:00:00 3,8 0,8 0,0
11.12.2018 03:00:00 3,0 0,5 0,0
11.12.2018 02:00:00 2,5 0,5 0,0
11.12.2018 01:00:00 1,1 0,0 0,0
11.12.2018 00:00:00 -0,4 -1,2 0,0
10.12.2018 23:00:00 -0,1 -1,2 0,0
10.12.2018 22:00:00 0,1 -1,2 0,0
10.12.2018 21:00:00 0,6 -0,7 0,0
10.12.2018 20:00:00 0,4 -0,7 0,0
10.12.2018 19:00:00 0,5 -0,6 0,0
10.12.2018 18:00:00 0,2 -0,9 0,0
10.12.2018 17:00:00 0,8 -0,9 0,0
10.12.2018 16:00:00 2,5 -0,3 0,0
10.12.2018 15:00:00 4,0 0,4 0,0
10.12.2018 14:00:00 4,5 1,1 0,0
10.12.2018 13:00:00 3,7 1,2 0,0
10.12.2018 12:00:00 3,8 1,0 0,0
10.12.2018 11:00:00 1,6 0,7 0,0
10.12.2018 10:00:00 0,5 -0,5 0,0
10.12.2018 09:00:00 0,8 0,0 0,0
10.12.2018 08:00:00 0,1 -0,8 0,0
10.12.2018 07:00:00 1,1 0,2 0,0
10.12.2018 06:00:00 0,3 -0,9 0,0
10.12.2018 05:00:00 0,9 -0,7 0,0
10.12.2018 04:00:00 1,6 -0,2 0,0
10.12.2018 03:00:00 2,3 0,3 0,0
10.12.2018 02:00:00 1,4 -0,7 0,0
10.12.2018 01:00:00 2,3 -0,1 0,0
10.12.2018 00:00:00 2,3 0,2 0,0
09.12.2018 23:00:00 1,4 -0,5 0,0
09.12.2018 22:00:00 1,6 0,1 0,0
09.12.2018 21:00:00 2,0 0,1 0,0
09.12.2018 20:00:00 2,0 -0,1 0,0
09.12.2018 19:00:00 3,0 -0,4 0,0
09.12.2018 18:00:00 5,1 0,5 0,0
09.12.2018 17:00:00 4,9 1,1 0,0
09.12.2018 16:00:00 5,6 0,9 0,0
09.12.2018 15:00:00 5,2 0,8 0,0
09.12.2018 14:00:00 5,9 0,9 0,0
09.12.2018 13:00:00 6,4 1,5 0,0
09.12.2018 12:00:00 5,9 1,3 0,0
09.12.2018 11:00:00 5,3 0,5 0,0
09.12.2018 10:00:00 4,8 0,3 0,0
09.12.2018 09:00:00 4,1 0,5 0,0
09.12.2018 08:00:00 3,8 1,1 0,0
09.12.2018 07:00:00 4,1 1,5 0,0
09.12.2018 06:00:00 4,3 1,8 0,0
09.12.2018 05:00:00 4,8 2,5 0,0
09.12.2018 04:00:00 4,9 3,1 0,0
09.12.2018 03:00:00 5,9 3,4 0,0
09.12.2018 02:00:00 6,2 3,2 0,0
09.12.2018 01:00:00 6,3 3,2 0,0
09.12.2018 00:00:00 6,4 3,2 0,0
08.12.2018 23:00:00 6,4 3,0 0,0
08.12.2018 22:00:00 5,9 3,1 0,0
08.12.2018 21:00:00 6,5 3,1 0,0
08.12.2018 20:00:00 6,5 3,7 0,0
08.12.2018 19:00:00 6,7 4,0 0,0
08.12.2018 18:00:00 6,6 3,4 0,0
08.12.2018 17:00:00 6,9 3,6 0,0
08.12.2018 16:00:00 7,5 3,7 0,0
08.12.2018 15:00:00 8,0 4,0 0,0
08.12.2018 14:00:00 8,7 4,0 0,0
08.12.2018 13:00:00 8,4 3,3 0,0
08.12.2018 12:00:00 9,2 3,0 0,0
08.12.2018 11:00:00 8,8 4,1 0,0
08.12.2018 10:00:00 9,0 3,9 0,0
08.12.2018 09:00:00 8,9 4,1 0,0
08.12.2018 08:00:00 8,9 3,7 0,0
08.12.2018 07:00:00 9,1 3,9 0,0
08.12.2018 06:00:00 9,0 4,0 0,0
08.12.2018 05:00:00 8,9 4,1 0,0
08.12.2018 04:00:00 8,8 4,2 0,0
08.12.2018 03:00:00 8,7 4,4 0,0
08.12.2018 02:00:00 8,5 4,9 0,0
08.12.2018 01:00:00 7,9 5,5 0,0
08.12.2018 00:00:00 7,8 4,1 0,0
07.12.2018 23:00:00 7,8 3,9 0,0
07.12.2018 22:00:00 7,2 3,5 0,0
07.12.2018 21:00:00 7,0 3,2 0,0

tt = Temperatura
td = dewpoint
rr = precipitazioni

Stazioni seguenti

WeatherPro
AMSI
MeteoEarth